MESHWX-1 Weather Reports


Display with metric or nautical units.
time (UTC)temp
F
wind
direction
speed
MPH
gust
MPH
rain 1hr
in
rain 24hr
in
rain mn
in
humidity
%
barometer
mb
20260906040847 75 0.0 0.0 0.00 0.00 0.00 28 1002.6
20260906040458 76 0.0 0.0 0.00 0.00 0.00 30 1002.1
20260906035957 76 0.0 0.0 0.00 0.00 0.00 30 1002.1
20260906033911 76 0.0 0.0 0.00 0.00 0.00 30 1002.1
20260906033341 76 0.0 0.0 0.00 0.00 0.00 30 1002.1
20260906032858 76 0.0 0.0 0.00 0.00 0.00 35 1001.6
20260906032457 76 0.0 0.0 0.00 0.00 0.00 35 1001.6
20260906025911 76 0.0 0.0 0.00 0.00 0.00 35 1001.6
20260906025357 76 0.0 0.0 0.00 0.00 0.00 37 1001.2
20260906024957 76 0.0 0.0 0.00 0.00 0.00 37 1001.2
20260906023044 76 0.0 0.0 0.00 0.00 0.00 37 1001.2
20260906022517 76 0.0 0.0 0.00 0.00 0.00 37 1001.2
20260906021957 77 0.0 0.0 0.00 0.00 0.00 38 1000.8
20260906021557 77 0.0 0.0 0.00 0.00 0.00 38 1000.8
20260906015253 77 0.0 0.0 0.00 0.00 0.00 38 1000.8
20260906014657 78 0.0 0.0 0.00 0.00 0.00 39 1000.4
20260906014256 78 0.0 0.0 0.00 0.00 0.00 39 1000.4
20260906012552 78 0.0 0.0 0.00 0.00 0.00 39 1000.4
20260906011858 78 0.0 0.0 0.00 0.00 0.00 39 1000.4
20260906011257 78 0.0 0.0 0.00 0.00 0.00 39 1000.1
20260906010856 78 0.0 0.0 0.00 0.00 0.00 39 1000.1
20260906004504 78 0.0 0.0 0.00 0.00 0.00 39 1000.1
20260906003857 78 0.0 0.0 0.00 0.00 0.00 41 999.7
20260906003456 78 0.0 0.0 0.00 0.00 0.00 41 999.7
20260906001835 78 0.0 0.0 0.00 0.00 0.00 41 999.7
20260906001146 78 0.0 0.0 0.00 0.00 0.00 41 999.7
20260906000457 79 0.0 0.0 0.00 0.00 0.00 39 999.2
20260906000056 79 0.0 0.0 0.00 0.00 0.00 39 999.2
20260905233810 79 0.0 0.0 0.00 0.00 0.00 39 999.2
20260905233057 79 0.0 0.0 0.00 0.00 0.00 40 999.1
20260905232656 79 0.0 0.0 0.00 0.00 0.00 40 999.1
20260905231043 79 0.0 0.0 0.00 0.00 0.00 40 999.1
20260905230434 79 0.0 0.0 0.00 0.00 0.00 40 999.1
20260905225756 79 0.0 0.0 0.00 0.00 0.00 40 999.1
20260905225356 79 0.0 0.0 0.00 0.00 0.00 40 999.1
20260905223134 79 0.0 0.0 0.00 0.00 0.00 40 999.1
20260905222356 78 0.0 0.0 0.00 0.00 0.00 40 998.7
20260905221856 78 0.0 0.0 0.00 0.00 0.00 40 998.7
20260905220441 78 0.0 0.0 0.00 0.00 0.00 40 998.7
20260905215721 78 0.0 0.0 0.00 0.00 0.00 40 998.7
20260905214856 77 0.0 0.0 0.00 0.00 0.00 37 998.4
20260905214355 77 0.0 0.0 0.00 0.00 0.00 37 998.4
20260905212309 77 0.0 0.0 0.00 0.00 0.00 37 998.4
20260905211457 77 0.0 0.0 0.00 0.00 0.00 38 998.0
20260905210955 77 0.0 0.0 0.00 0.00 0.00 38 998.0
20260905205613 77 0.0 0.0 0.00 0.00 0.00 38 998.0
20260905204915 77 0.0 0.0 0.00 0.00 0.00 38 998.0
20260905204056 78 0.0 0.0 0.00 0.00 0.00 36 997.5
20260905203555 78 0.0 0.0 0.00 0.00 0.00 36 997.5
20260905201539 78 0.0 0.0 0.00 0.00 0.00 36 997.5
20260905200656 80 0.0 0.0 0.00 0.00 0.00 34 997.2
20260905200255 80 0.0 0.0 0.00 0.00 0.00 34 997.2
20260905194821 80 0.0 0.0 0.00 0.00 0.00 34 997.2
20260905194239 80 0.0 0.0 0.00 0.00 0.00 34 997.2
20260905193355 82 0.0 0.0 0.00 0.00 0.00 30 997.0
20260905192955 82 0.0 0.0 0.00 0.00 0.00 30 997.0
20260905190844 82 0.0 0.0 0.00 0.00 0.00 30 997.0
20260905190056 85 0.0 0.0 0.00 0.00 0.00 27 996.8
20260905185555 85 0.0 0.0 0.00 0.00 0.00 27 996.8
20260905184105 85 0.0 0.0 0.00 0.00 0.00 27 996.8
20260905183432 85 0.0 0.0 0.00 0.00 0.00 27 996.8
20260905182655 85 0.0 0.0 0.00 0.00 0.00 23 996.4
20260905182154 85 0.0 0.0 0.00 0.00 0.00 23 996.4
20260905180114 85 0.0 0.0 0.00 0.00 0.00 23 996.4
20260905175255 87 0.0 0.0 0.00 0.00 0.00 20 996.1
20260905174854 87 0.0 0.0 0.00 0.00 0.00 20 996.1
20260905173429 87 0.0 0.0 0.00 0.00 0.00 20 996.1
20260905172814 87 0.0 0.0 0.00 0.00 0.00 20 996.1
20260905171955 93 0.0 0.0 0.00 0.00 0.00 18 995.9
20260905171554 93 0.0 0.0 0.00 0.00 0.00 18 995.9
20260905165626 93 0.0 0.0 0.00 0.00 0.00 18 995.9
20260905164755 100 0.0 0.0 0.00 0.00 0.00 16 995.7
20260905164354 100 0.0 0.0 0.00 0.00 0.00 16 995.7
20260905163050 100 0.0 0.0 0.00 0.00 0.00 16 995.7
20260905162438 100 0.0 0.0 0.00 0.00 0.00 16 995.7
20260905161454 103 0.0 0.0 0.00 0.00 0.00 15 995.8
20260905161054 103 0.0 0.0 0.00 0.00 0.00 15 995.8
20260905155155 103 0.0 0.0 0.00 0.00 0.00 15 995.8
20260905154154 106 0.0 0.0 0.00 0.00 0.00 14 995.9
20260905153754 106 0.0 0.0 0.00 0.00 0.00 14 995.9
20260905152449 106 0.0 0.0 0.00 0.00 0.00 14 995.9
20260905151949 106 0.0 0.0 0.00 0.00 0.00 14 995.9
20260905150953 107 0.0 0.0 0.00 0.00 0.00 14 996.1
20260905150553 107 0.0 0.0 0.00 0.00 0.00 14 996.1
20260905144819 107 0.0 0.0 0.00 0.00 0.00 14 996.1
20260905143653 108 0.0 0.0 0.00 0.00 0.00 14 996.1
20260905143353 108 0.0 0.0 0.00 0.00 0.00 14 996.1
20260905142112 108 0.0 0.0 0.00 0.00 0.00 14 996.1
20260905141631 108 0.0 0.0 0.00 0.00 0.00 14 996.1
20260905140553 109 0.0 0.0 0.00 0.00 0.00 14 996.4
20260905140153 109 0.0 0.0 0.00 0.00 0.00 14 996.4
20260905134555 109 0.0 0.0 0.00 0.00 0.00 14 996.4
20260905133453 108 0.0 0.0 0.00 0.00 0.00 14 996.7
20260905133053 108 0.0 0.0 0.00 0.00 0.00 14 996.7
20260905131959 108 0.0 0.0 0.00 0.00 0.00 14 996.7
20260905131406 108 0.0 0.0 0.00 0.00 0.00 14 996.7
20260905130253 107 0.0 0.0 0.00 0.00 0.00 14 997.0
20260905125752 107 0.0 0.0 0.00 0.00 0.00 14 997.0
20260905124200 107 0.0 0.0 0.00 0.00 0.00 14 997.0
20260905122953 106 0.0 0.0 0.00 0.00 0.00 15 997.5
20260905122452 106 0.0 0.0 0.00 0.00 0.00 15 997.5
20260905121507 106 0.0 0.0 0.00 0.00 0.00 15 997.5
20260905120936 106 0.0 0.0 0.00 0.00 0.00 15 997.5
20260905115653 106 0.0 0.0 0.00 0.00 0.00 16 997.9
20260905115152 106 0.0 0.0 0.00 0.00 0.00 16 997.9
20260905113712 106 0.0 0.0 0.00 0.00 0.00 16 997.9
20260905112352 100 0.0 0.0 0.00 0.00 0.00 18 998.1
20260905111752 100 0.0 0.0 0.00 0.00 0.00 18 998.1
20260905111015 100 0.0 0.0 0.00 0.00 0.00 18 998.1
20260905110354 100 0.0 0.0 0.00 0.00 0.00 18 998.1
20260905104952 98 0.0 0.0 0.00 0.00 0.00 19 998.4
20260905104451 98 0.0 0.0 0.00 0.00 0.00 19 998.4
20260905103053 98 0.0 0.0 0.00 0.00 0.00 19 998.4
20260905101552 97 0.0 0.0 0.00 0.00 0.00 21 998.7
20260905101051 97 0.0 0.0 0.00 0.00 0.00 21 998.7
20260905100412 97 0.0 0.0 0.00 0.00 0.00 21 998.7
20260905095641 97 0.0 0.0 0.00 0.00 0.00 21 998.7
20260905094152 96 0.0 0.0 0.00 0.00 0.00 22 998.9
20260905093651 96 0.0 0.0 0.00 0.00 0.00 22 998.9
20260905092306 96 0.0 0.0 0.00 0.00 0.00 22 998.9
20260905090852 94 0.0 0.0 0.00 0.00 0.00 23 999.1
20260905090251 94 0.0 0.0 0.00 0.00 0.00 23 999.1
20260905085656 94 0.0 0.0 0.00 0.00 0.00 23 999.1
20260905084929 94 0.0 0.0 0.00 0.00 0.00 23 999.1
20260905083451 93 0.0 0.0 0.00 0.00 0.00 23 999.3
20260905082850 93 0.0 0.0 0.00 0.00 0.00 23 999.3
20260905081629 93 0.0 0.0 0.00 0.00 0.00 23 999.3
20260905080151 91 0.0 0.0 0.00 0.00 0.00 25 999.4
20260905075550 91 0.0 0.0 0.00 0.00 0.00 25 999.4
20260905075020 91 0.0 0.0 0.00 0.00 0.00 25 999.4
20260905074329 91 0.0 0.0 0.00 0.00 0.00 25 999.4
20260905072751 89 0.0 0.0 0.00 0.00 0.00 28 999.6
20260905072150 89 0.0 0.0 0.00 0.00 0.00 28 999.6
20260905070952 89 0.0 0.0 0.00 0.00 0.00 28 999.6
20260905065351 84 0.0 0.0 0.00 0.00 0.00 33 999.5
20260905064750 84 0.0 0.0 0.00 0.00 0.00 33 999.5
20260905064308 84 0.0 0.0 0.00 0.00 0.00 33 999.5
20260905063540 84 0.0 0.0 0.00 0.00 0.00 33 999.5
20260905061851 79 0.0 0.0 0.00 0.00 0.00 38 999.7
20260905061250 79 0.0 0.0 0.00 0.00 0.00 38 999.7
20260905060110 79 0.0 0.0 0.00 0.00 0.00 38 999.7
20260905054450 74 0.0 0.0 0.00 0.00 0.00 44 999.6
20260905053850 74 0.0 0.0 0.00 0.00 0.00 44 999.6
20260905053405 74 0.0 0.0 0.00 0.00 0.00 44 999.6
20260905052716 74 0.0 0.0 0.00 0.00 0.00 44 999.6
20260905050950 69 0.0 0.0 0.00 0.00 0.00 51 999.7
20260905050349 69 0.0 0.0 0.00 0.00 0.00 51 999.7
20260905045322 69 0.0 0.0 0.00 0.00 0.00 51 999.7
20260905043450 66 0.0 0.0 0.00 0.00 0.00 57 999.5